Regional Weather Roundup
Issued by NWS Cleveland, OH

Home | Current Version | Previous Version | Text Only | Print | Product List | Glossary Off
Versions: 1 2 3 4 5 6 7 8 9 10 11 12 13 14 15 16 17 18 19 20 21 22 23 24 25 26 27 28 29 30 31 32 33 34 35 36 37 38 39 40 41 42 43 44 45 46 47 48 49 50

000
ASUS41 KCLE 290900
RWRCLE
OHIO REGIONAL WEATHER ROUNDUP
NATIONAL WEATHER SERVICE WILMINGTON, OH
400 AM EST MON DEC 29 2014

NOTE: "FAIR" INDICATES FEW OR NO CLOUDS BELOW 12,000 FEET WITH NO
SIGNIFICANT WEATHER AND/OR OBSTRUCTIONS TO VISIBILITY.

OHZ001>008-015>018-024>027-034-035-043-044-291000-
   NORTHWEST OHIO

CITY           SKY/WX    TMP DP  RH WIND       PRES   REMARKS
DEFIANCE       PTCLDY    21  19  92 S3        30.26R FOG
FINDLAY        PTCLDY    25  20  81 NW6       30.24R WCI  18
TOLEDO EXPRESS CLEAR     21  19  92 CALM      30.25R
TOLEDO METCALF PTCLDY    26  19  74 N6        30.26R WCI  19
LIMA           PTCLDY    28  23  81 NW3       30.23S
$$

OHZ009>014-019>023-028>033-038-089-291000-
   NORTHEAST OHIO

CITY           SKY/WX    TMP DP  RH WIND       PRES   REMARKS
CLE-HOPKINS    CLOUDY    30  26  85 W5        30.23S WCI  25
CLE-LAKEFRONT  CLOUDY    34  25  69 NW7       30.21S WCI  28
CUY CO. ARPT   NOT AVBL
LORAIN-ELYRIA  CLOUDY    29  26  89 NW5       30.22S WCI  24
ASHTABULA      CLOUDY    31  25  78 CALM      30.20S
AKRON-CANTON   PTCLDY    28  24  85 CALM      30.19S
WOOSTER        NOT AVBL
MANSFIELD      CLEAR     24  23  96 NW6       30.20S WCI  17
YOUNGSTOWN     CLOUDY    30  26  85 CALM      30.17F
$$

OHZ042-051>053-060>062-070>072-077>081-291000-
  SOUTHWEST OHIO

CITY           SKY/WX    TMP DP  RH WIND       PRES   REMARKS
CINC-COVINGTON MOCLDY    31  24  75 N9        30.21F WCI  23
CINC-LUNKEN    CLOUDY    30  28  92 N7        30.25F WCI  23
HAMILTON       CLEAR     27  25  92 N5        30.25S WCI  22
DAYTON         NOT AVBL
WRIGHT-PAT AFB CLEAR     26  24  93 N3        30.23S
DAYTON GENERAL CLEAR     25  23  92 N6        30.22R WCI  18
WILMINGTON     CLEAR     27  24  89 N7        30.21R FOG     WCI  19
$$

OHZ036-037-039>041-045>050-054>059-063>069-073>076-082>088-291000-
  CENTRAL AND SOUTHEAST OHIO

CITY           SKY/WX    TMP DP  RH WIND       PRES   REMARKS
COLUMBUS       CLEAR     27  24  89 N5        30.22R WCI  22
OSU AIRPORT    CLEAR     26  23  88 N7        30.22R WCI  18
BOLTON FIELD   NOT AVBL
RICKENBACK AFB NOT AVBL
NEWARK         CLEAR     29  25  85 CALM      30.22R
MARION         CLEAR     26  22  84 NW5       30.23R FOG     WCI  20
LANCASTER      CLEAR     29  26  89 NW5       30.22R WCI  24
ZANESVILLE     PTCLDY    29  25  85 CALM      30.20S
NEW PHILLY     PTCLDY    29  25  85 CALM      30.21F
$$



USA.gov is the U.S. government's official web portal to all federal, state and local government web resources and services.